DW2789 Weather Reports


Display with metric or nautical units.
time (UTC)temp
F
wind
direction
speed
MPH
gust
MPH
rain 1hr
in
rain 24hr
in
rain mn
in
humidity
%
barometer
mb
20260503214011 81 78 0.0 5.0 0.00 0.00 0.00 45 1011.2
20260503212938 81 78 0.0 10.0 0.00 0.00 0.00 46 1011.3
20260503211936 80 78 0.0 10.0 0.00 0.00 0.00 48 1011.4
20260503210938 79 78 0.0 5.0 0.00 0.00 0.00 43 1011.5
20260503205932 79 78 0.0 0.0 0.00 0.00 0.00 46 1011.7
20260503204943 78 78 0.0 2.0 0.00 0.00 0.00 50 1011.6
20260503203926 77 78 0.0 0.0 0.00 0.00 0.00 50 1011.8
20260503202932 77 78 1.0 4.0 0.00 0.00 0.00 51 1011.9
20260503201934 76 78 0.0 5.0 0.00 0.00 0.00 46 1012.0
20260503201004 76 78 1.0 7.0 0.00 0.00 0.00 50 1012.1
20260503195928 75 78 3.0 8.0 0.00 0.00 0.00 48 1012.2
20260503194933 75 78 4.0 8.0 0.00 0.00 0.00 52 1012.3
20260503193935 75 78 1.0 8.0 0.00 0.00 0.00 50 1012.5
20260503192940 75 78 1.0 9.0 0.00 0.00 0.00 51 1012.6
20260503191944 74 78 2.0 10.0 0.00 0.00 0.00 50 1012.6
20260503190930 75 78 6.0 9.0 0.00 0.00 0.00 51 1012.8
20260503184958 74 78 1.0 5.0 0.00 0.00 0.00 51 1012.8
20260503183936 73 78 0.0 0.0 0.00 0.00 0.00 47 1012.8
20260503182937 72 78 0.0 0.0 0.00 0.00 0.00 50 1012.9
20260503181957 71 78 0.0 0.0 0.00 0.00 0.00 51 1013.0
20260503180947 71 78 0.0 3.0 0.00 0.00 0.00 57 1013.1
20260503180004 71 78 2.0 4.0 0.00 0.00 0.00 55 1013.2
20260503174948 70 78 0.0 5.0 0.00 0.00 0.00 55 1013.3
20260503173937 70 78 0.0 0.0 0.00 0.00 0.00 59 1013.4
20260503172939 70 78 0.0 0.0 0.00 0.00 0.00 56 1013.5
20260503171944 69 78 0.0 0.0 0.00 0.00 0.00 54 1013.5
20260503170946 68 78 0.0 5.0 0.00 0.00 0.00 54 1013.5
20260503150938 62 78 0.0 0.0 0.00 0.00 0.00 56 1013.1
20260503130933 56 78 0.0 3.0 0.00 0.00 0.00 60 1013.1
20260503080943 61 30 0.0 6.0 0.00 0.00 0.00 50 1012.7
20260503072937 61 30 0.0 6.0 0.00 0.00 0.00 49 1012.5
20260503071940 62 30 0.0 7.0 0.00 0.00 0.00 48 1012.4
20260503070927 61 30 2.0 7.0 0.00 0.00 0.00 50 1012.4
20260503054933 61 24 0.0 0.0 0.00 0.00 0.00 54 1012.1
20260503053937 61 24 0.0 0.0 0.00 0.00 0.00 54 1012.1
20260503052940 61 24 0.0 0.0 0.00 0.00 0.00 56 1012.0
20260503051945 61 24 0.0 0.0 0.00 0.00 0.00 58 1012.0
20260503050947 61 24 0.0 0.0 0.00 0.00 0.00 60 1011.9
20260503045933 61 24 0.0 0.0 0.00 0.00 0.00 60 1011.9
20260503044936 62 24 0.0 0.0 0.00 0.00 0.00 61 1011.9
20260503043942 62 24 0.0 0.0 0.00 0.00 0.00 60 1011.9
20260503043005 62 24 0.0 0.0 0.00 0.00 0.00 60 1011.8
20260503041947 63 24 0.0 0.0 0.00 0.00 0.00 59 1011.7
20260503040934 63 24 0.0 0.0 0.00 0.00 0.00 60 1011.6
20260503035935 64 24 0.0 0.0 0.00 0.00 0.00 60 1011.4
20260503034937 64 24 0.0 0.0 0.00 0.00 0.00 60 1011.3
20260503033940 66 24 0.0 0.0 0.00 0.00 0.00 60 1011.1
20260503033005 67 24 0.0 0.0 0.00 0.00 0.00 58 1011.0
20260503032002 69 24 0.0 0.0 0.00 0.00 0.00 56 1010.8
20260503031007 70 24 0.0 0.0 0.00 0.00 0.00 55 1010.7
20260503025947 72 24 0.0 0.0 0.00 0.00 0.00 54 1010.7
20260503023947 75 24 0.0 0.0 0.00 0.00 0.00 50 1010.5
20260503022929 77 24 0.0 0.0 0.00 0.00 0.00 51 1010.5
20260503021955 78 24 0.0 0.0 0.00 0.00 0.00 49 1010.6
20260503020937 79 24 0.0 0.0 0.00 0.00 0.00 49 1010.5
20260503015942 79 24 0.0 0.0 0.00 0.00 0.00 46 1010.5
20260503014928 79 24 0.0 3.0 0.00 0.00 0.00 44 1010.5
20260503013937 81 24 0.0 2.0 0.00 0.00 0.00 47 1010.5
20260503012940 81 24 0.0 7.0 0.00 0.00 0.00 44 1010.6
20260503011942 82 24 0.0 0.0 0.00 0.00 0.00 43 1010.7
20260503010947 82 24 0.0 0.0 0.00 0.00 0.00 46 1010.7
20260503004927 82 24 0.0 7.0 0.00 0.00 0.00 47 1010.8
20260503003933 81 24 0.0 5.0 0.00 0.00 0.00 49 1010.9
20260503002936 81 24 1.0 5.0 0.00 0.00 0.00 51 1010.9
20260503001939 80 24 0.0 5.0 0.00 0.00 0.00 49 1010.9
20260503000929 80 24 0.0 0.0 0.00 0.00 0.00 49 1011.0
20260502235951 80 24 0.0 0.0 0.00 0.00 0.00 51 1011.0
20260502234948 80 24 0.0 0.0 0.00 0.00 0.00 51 1011.0
20260502233946 80 24 0.0 0.0 0.00 0.00 0.00 52 1011.1
20260502232946 79 24 0.0 0.0 0.00 0.00 0.00 50 1011.2
20260502231927 78 24 0.0 0.0 0.00 0.00 0.00 50 1011.3
20260502230933 78 24 0.0 0.0 0.00 0.00 0.00 52 1011.4
20260502225935 78 24 0.0 0.0 0.00 0.00 0.00 55 1011.6
20260502225001 78 24 0.0 0.0 0.00 0.00 0.00 50 1011.8
20260502223942 77 24 0.0 0.0 0.00 0.00 0.00 50 1012.0
20260502222945 76 24 0.0 0.0 0.00 0.00 0.00 52 1012.1
20260502221928 76 24 0.0 0.0 0.00 0.00 0.00 53 1012.2
20260502220938 76 24 0.0 0.0 0.00 0.00 0.00 53 1012.4
20260502215939 76 24 0.0 0.0 0.00 0.00 0.00 52 1012.4
20260502215001 75 26 0.0 0.0 0.00 0.00 0.00 52 1012.5